Location: Krasnoyarskiy Pitomnik
(51.1333°N, 71.6167°E)
Time: 05:39:54
(UTC+00:00)

A-11 Canister half - Visible Passes

Search period start: 16 July 2025 00:00
Search period end: 26 July 2025 00:00
Orbit: 1523 x 1684 km, 47.3° (Epoch: 15 July)

Date Brightness Start Highest point End Pass type
(mag) Time Alt. Az. Time Alt. Az. Time Alt. Az.
16 Jul 10.7 20:02:50 10° SSE 20:07:01 14° SE 20:11:15 10° E visible
16 Jul 9.8 22:01:06 10° SSW 22:09:55 40° SE 22:18:38 10° E visible
17 Jul 10.7 19:41:59 11° SE 19:45:18 13° SE 19:49:00 10° E visible
17 Jul 9.8 21:40:14 13° SSW 21:48:09 39° SE 21:56:49 10° E visible
18 Jul 10.7 19:21:04 11° SE 19:23:36 12° ESE 19:26:37 10° ESE visible
18 Jul 9.8 21:19:20 16° SSW 21:26:23 37° SE 21:34:58 10° E visible
19 Jul 10.7 19:00:08 10° SE 19:01:53 11° ESE 19:03:59 10° ESE visible
19 Jul 9.8 20:58:23 19° SSW 21:04:36 36° SE 21:13:09 10° E visible
20 Jul 9.8 20:37:23 21° S 20:42:51 35° SE 20:51:18 10° E visible
20 Jul 9.3 22:37:00 10° WSW 22:46:48 64° SSE 22:56:15 10° E visible
21 Jul 9.8 20:16:19 23° S 20:21:04 33° SE 20:29:27 10° E visible
21 Jul 9.2 22:15:12 10° WSW 22:24:59 63° SSE 22:34:27 10° E visible
22 Jul 9.8 19:55:13 24° S 19:59:18 32° SE 20:07:36 10° E visible
22 Jul 9.2 21:53:27 10° WSW 22:03:10 62° SSE 22:12:39 10° E visible
23 Jul 9.8 19:34:02 25° S 19:37:32 31° SE 19:45:43 10° E visible
23 Jul 9.2 21:32:16 13° SW 21:41:21 60° SSE 21:50:51 10° E visible
24 Jul 9.8 19:12:47 25° SSE 19:15:46 30° SE 19:23:51 10° E visible
24 Jul 9.2 21:11:01 15° SW 21:19:32 59° SSE 21:29:02 10° E visible
25 Jul 9.8 18:51:27 25° SSE 18:54:01 28° SE 19:01:57 10° E visible
25 Jul 9.2 20:49:40 16° SW 20:57:44 58° SSE 21:07:13 10° E visible
